Home   Weather   Barcelona   Past weeks

Flag for Spain Past Weather in Barcelona, Barcelona, Spain — Yesterday and Last 2 Weeks

Now
75 °F

Passing clouds.


Feels Like: 77 °F
Forecast: 57 / 76 °F
Wind: 9 mph from South

Location: Barcelona Airport

Current Time: Sep 29, 2016 at 2:03:01 PM

Latest Report: Sep 29, 2016 at 1:30 PM


Visibility: N/A

Pressure: 30.30 "Hg

Humidity: 69%

Dew Point: 64 °F

Location of BarcelonaLocation

Past Weather in Barcelona — Graph

°F

Barcelona Temperature Yesterday

Maximum temperature yesterday: 79 °F (at 1:30 PM)
Minimum temperature yesterday: 64 °F (at 6:30 AM)
Average temperature yesterday: 71 °F

High & Low Weather Summary for the Past Weeks

 TemperatureHumidityPressure
High79 °F (Sep 14, 2:30 PM)94% (Sep 18, 12:00 AM)30.39 "Hg (Sep 18, 12:00 AM)
Low59 °F (Sep 15, 7:00 AM)32% (Sep 15, 2:30 PM)29.77 "Hg (Sep 14, 3:30 PM)
Average70 °F68%30.10 "Hg
* Reported Sep 14 1:00 PM — Sep 29 1:00 PM, Barcelona, Weather by CustomWeather, © 2016

Note: Actual official high and low records may vary slightly from our data, if they occured in-between our weather recording intervals... More about our weather records

Advertising

Barcelona Weather History for the Previous 24 Hours

Scroll right to see more
 ConditionsComfort  
Time TempWeatherWind HumidityBarometerVisibility
1:00 PM
Thu, Sep 29
75 °FPassing clouds.10 mph69%30.30 "HgN/A
12:30 PM73 °FPassing clouds.8 mph74%30.30 "HgN/A
12:00 PM73 °FPassing clouds.7 mph74%30.33 "HgN/A
11:30 AM73 °FPassing clouds.3 mph69%30.33 "HgN/A
11:00 AM72 °FPassing clouds.5 mph69%30.33 "HgN/A
10:30 AM68 °FPassing clouds.9 mph69%30.33 "HgN/A
10:00 AM66 °FPassing clouds.10 mph73%30.33 "HgN/A
9:30 AM64 °FPassing clouds.10 mph73%30.33 "HgN/A
9:00 AM63 °FPassing clouds.12 mph77%30.33 "HgN/A
8:30 AM61 °FPassing clouds.12 mph83%30.33 "HgN/A
8:00 AM61 °FPassing clouds.12 mph83%30.33 "HgN/A
7:30 AM61 °FPassing clouds.13 mph83%30.33 "HgN/A
7:00 AM63 °FPassing clouds.12 mph83%30.33 "HgN/A
6:30 AM63 °FPassing clouds.12 mph83%30.33 "HgN/A
6:00 AM63 °FPassing clouds.13 mph83%30.33 "HgN/A
5:30 AM63 °FMild.13 mph83%30.33 "HgN/A
5:00 AM63 °FPassing clouds.10 mph88%30.36 "HgN/A
4:30 AM63 °FPassing clouds.12 mph88%30.36 "HgN/A
4:00 AM64 °FPassing clouds.12 mph83%30.36 "HgN/A
3:30 AM64 °FPassing clouds.9 mph83%30.36 "HgN/A
3:00 AM64 °FPassing clouds.9 mph83%30.39 "HgN/A
2:30 AM66 °FPassing clouds.7 mph83%30.39 "HgN/A
2:00 AM66 °FPassing clouds.7 mph83%30.39 "HgN/A
1:30 AM66 °FPassing clouds.6 mph83%30.39 "HgN/A
1:00 AM68 °FPassing clouds.7 mph78%30.39 "HgN/A
12:30 AM68 °FPassing clouds.3 mph78%30.39 "HgN/A
12:00 AM70 °FPassing clouds.3 mph78%30.39 "HgN/A
11:30 PM
Wed, Sep 28
70 °FPassing clouds.5 mph78%30.39 "HgN/A
11:00 PM72 °FPassing clouds.5 mph73%30.39 "HgN/A
10:30 PM72 °FPassing clouds.9 mph73%30.39 "HgN/A
10:00 PM72 °FPassing clouds.8 mph78%30.39 "HgN/A
9:30 PM72 °FPassing clouds.6 mph73%30.39 "HgN/A
9:00 PM72 °FPassing clouds.8 mph73%30.39 "HgN/A
8:30 PM72 °FClear.10 mph73%30.36 "Hg10 mi
8:00 PM73 °FClear.7 mph65%30.36 "Hg10 mi
7:30 PM73 °FPassing clouds.5 mph65%30.36 "HgN/A
7:00 PM75 °FSunny.9 mph61%30.36 "Hg10 mi
6:30 PM75 °FPassing clouds.13 mph61%30.36 "HgN/A
6:00 PM75 °FPassing clouds.14 mph61%30.36 "HgN/A
5:30 PM77 °FSunny.14 mph57%30.36 "Hg10 mi
5:00 PM75 °FSunny.16 mph61%30.36 "Hg10 mi
4:30 PM77 °FSunny.16 mph54%30.36 "Hg10 mi
4:00 PM77 °FPassing clouds.17 mph51%30.36 "HgN/A
3:30 PM77 °FPassing clouds.16 mph51%30.36 "HgN/A
3:00 PM77 °FPassing clouds.15 mph51%30.36 "HgN/A
2:30 PM77 °FPassing clouds.16 mph51%30.36 "HgN/A
2:00 PM79 °FSunny.16 mph48%30.36 "Hg10 mi
Weather by CustomWeather, © 2016

See weather overviewHow to use our weather pages